Regional Weather Roundup
Issued by NWS Kansas City/Pleasant Hill, MO

Home | Current Version | Previous Version | Text Only | Print | Product List | Glossary On
Versions: 1 2 3 4 5 6 7 8 9 10 11 12 13 14 15 16 17 18 19 20 21 22 23 24 25 26 27 28 29 30 31 32 33 34 35 36 37 38 39 40 41 42 43 44 45 46 47 48 49 50
000
ASUS43 KEAX 210411
RWREAX

WEATHER ROUNDUP FOR EASTERN KANSAS AND NORTHWEST MISSOURI
NATIONAL WEATHER SERVICE KANSAS CITY/PLEASANT HILL MO
1100 PM CDT MON OCT 20 2014

KSZ040-057-103>105-MOZ028-029-037-043-210500-
...KANSAS CITY METROPOLITAN AREA...

CITY           SKY/WX    TMP DP  RH WIND       PRES   REMARKS
K.C. INTL      CLEAR     60  41  49 CALM      30.07R
K.C. DOWNTOWN  CLEAR     54  48  80 CALM      30.07R
LEES SUMMIT    CLEAR     54  43  66 CALM      30.08R
OLATHE - IXD   CLEAR     52  45  77 S6        30.08R
OLATHE - OJC   CLEAR     53  47  79 CALM      30.07R
LAWRENCE       CLEAR     44  42  93 CALM      30.08R

$$

MOZ001>008-011>017-020>025-030>033-038>040-044>046-053-054-210500-
...NORTHERN AND CENTRAL MISSOURI...

CITY           SKY/WX    TMP DP  RH WIND       PRES   REMARKS
ST. JOSEPH     CLEAR     44  40  85 CALM      30.08R
MOSBY          CLEAR     46  45  93 CALM      30.07S
WHITEMAN AFB   CLEAR     51  46  80 SW2       30.07R
CLINTON        CLEAR     48  46  93 CALM      30.08R
SEDALIA        CLEAR     57  42  57 CALM      30.08R
WARSAW         NOT AVBL
MARSHALL       CLEAR     52  48  87 CALM      30.07S
CHILLICOTHE      N/A     47  44  90 CALM      30.07S
MOBERLY        CLEAR     50  43  76 W3        30.06R
KIRKSVILLE     CLEAR     46  44  93 W3        30.06R

$$

MOZ041-047>049-056>058-063>065-088>090-097-210500-
...EASTERN AND SOUTHERN MISSOURI...

CITY           SKY/WX    TMP DP  RH WIND       PRES   REMARKS
ST. LOUIS INTL CLEAR     54  46  74 SW5       30.03S
SPIRIT OF STL  CLEAR     47  45  93 CALM      30.03S
COLUMBIA       CLEAR     53  43  68 CALM      30.06R
JEFFERSON CITY CLEAR     50  45  83 NW3       30.06R
MEXICO         CLEAR     48  46  93 W3        30.05R
ROLLA          CLEAR     49  41  74 CALM      30.05R
LEBANON        CLEAR     54  48  82 CALM      30.08S
OSAGE BEACH    CLEAR     48  45  87 CALM      30.07R
SPRINGFIELD    CLEAR     54  51  90 CALM      30.07R
BRANSON        CLEAR     57  55  94 CALM      30.09S
NEVADA         CLEAR     57  50  77 CALM      30.08S
JOPLIN         CLEAR     56  55  97 CALM      30.09R
WEST PLAINS    CLEAR     55  53  93 CALM      30.07R

$$

IAZ060-094-KSZ022-034>040-054-083-096-NEZ052-066-093-210500-
...KANSAS...SOUTHEAST NEBRASKA AND IOWA...

CITY           SKY/WX    TMP DP  RH WIND       PRES   REMARKS
TOPEKA         CLEAR     48  47  96 CALM      30.09R FOG
MANHATTAN      CLEAR     46  43  89 CALM      30.08S
EMPORIA        CLEAR     56  46  69 CALM      30.08R
CHANUTE        CLEAR     53  50  89 CALM      30.08R
WICHITA        CLEAR     57  47  69 CALM      30.08R
OMAHA          CLEAR     49  44  83 CALM      30.08R
LINCOLN        CLEAR     42  37  82 N5        30.09S
FALLS CITY     CLEAR     50  38  63 CALM      30.07R
LAMONI         CLEAR     49  41  74 W5        30.07R
DES MOINES     CLEAR     55  41  59 CALM      30.05R

$$




USA.gov is the U.S. government's official web portal to all federal, state and local government web resources and services.